FW8254 Weather Reports


time (UTC)temp
F
wind
direction
speed
knots
gust
knots
rain 1hr
in
rain 24hr
in
rain mn
in
humidity
%
barometer
mb
20260902114833 76 317 1.7 1.7 0.00 0.00 0.00 91 1013.3
20260902114328 76 332 0.0 0.0 0.00 0.00 0.00 90 1012.9
20260902113828 76 333 0.0 0.0 0.00 0.00 0.00 90 1013.2
20260902113325 75 333 0.0 0.0 0.00 0.00 0.00 90 1013.0
20260902112823 75 334 0.0 0.0 0.00 0.00 0.00 90 1012.9
20260902112320 75 334 0.0 0.0 0.00 0.00 0.00 90 1012.8
20260902111815 75 334 0.0 0.0 0.00 0.00 0.00 90 1013.1
20260902111312 75 337 0.0 0.0 0.00 0.00 0.00 90 1013.1
20260902110807 75 337 0.0 0.0 0.00 0.00 0.00 90 1012.9
20260902110303 75 337 0.0 0.0 0.00 0.00 0.00 90 1012.6
20260902105802 75 337 0.0 0.0 0.00 0.00 0.00 90 1012.7
20260902105257 75 337 0.0 0.0 0.00 0.00 0.00 90 1012.7
20260902104753 75 337 0.0 0.0 0.00 0.00 0.00 90 1012.8
20260902104249 75 337 0.0 0.0 0.00 0.00 0.00 90 1012.6
20260902103749 75 338 0.0 0.0 0.00 0.00 0.00 89 1012.6
20260902103248 76 338 0.0 0.0 0.00 0.00 0.00 89 1012.7
20260902102744 76 338 0.0 0.0 0.00 0.00 0.00 89 1012.4
20260902102242 76 338 0.0 0.0 0.00 0.00 0.00 89 1012.5
20260902101737 76 338 0.0 0.0 0.00 0.00 0.00 89 1012.5
20260902101231 76 338 0.0 0.0 0.00 0.00 0.00 89 1012.5
20260902100731 76 338 0.0 0.0 0.00 0.00 0.00 89 1012.3
20260902100225 76 339 0.0 0.0 0.00 0.00 0.00 89 1012.3
20260902095720 76 336 0.0 0.0 0.00 0.00 0.00 89 1012.4
20260902095214 76 336 0.0 0.0 0.00 0.00 0.00 88 1012.3
20260902094708 76 336 0.0 0.0 0.00 0.00 0.00 88 1012.4
20260902094206 76 337 0.0 0.0 0.00 0.00 0.00 88 1012.5
20260902093704 76 337 0.0 0.0 0.00 0.00 0.00 88 1012.4
20260902093200 76 337 0.0 0.0 0.00 0.00 0.00 88 1012.5
20260902092700 76 336 0.0 0.0 0.00 0.00 0.00 88 1012.1
20260902092155 76 336 0.0 0.0 0.00 0.00 0.00 88 1012.4
20260902091654 76 336 0.0 0.0 0.00 0.00 0.00 87 1012.2
20260902091152 76 338 0.0 0.0 0.00 0.00 0.00 87 1012.2
20260902090647 76 336 0.0 0.0 0.00 0.00 0.00 87 1012.1
20260902090146 76 336 0.0 0.0 0.00 0.00 0.00 87 1012.1
20260902085641 76 336 0.0 0.0 0.00 0.00 0.00 87 1012.2
20260902085136 76 336 0.0 0.0 0.00 0.00 0.00 87 1012.1
20260902084632 76 336 0.0 0.0 0.00 0.00 0.00 86 1012.0
20260902084127 76 336 0.0 0.0 0.00 0.00 0.00 86 1011.9
20260902083623 77 336 0.0 0.0 0.00 0.00 0.00 86 1012.0
20260902083122 77 336 0.0 0.0 0.00 0.00 0.00 86 1011.9
20260902082618 77 336 0.0 0.0 0.00 0.00 0.00 86 1011.9
20260902082114 77 336 0.0 0.0 0.00 0.00 0.00 86 1011.8
20260902081611 77 336 0.0 0.0 0.00 0.00 0.00 86 1011.8
20260902081105 77 336 0.0 0.0 0.00 0.00 0.00 85 1011.9
20260902080600 77 335 0.0 0.0 0.00 0.00 0.00 85 1011.8
20260902080057 77 336 0.0 0.0 0.00 0.00 0.00 85 1011.6
20260902075556 77 335 0.0 0.0 0.00 0.00 0.00 85 1011.6
20260902075052 77 336 0.0 0.0 0.00 0.00 0.00 85 1011.8
20260902074547 77 335 0.0 0.0 0.00 0.00 0.00 85 1011.4
20260902074043 77 339 0.0 0.0 0.00 0.00 0.00 85 1011.7
20260902073538 77 336 0.0 0.0 0.00 0.00 0.00 85 1011.5
20260902073034 77 336 0.0 0.0 0.00 0.00 0.00 84 1011.5
20260902072530 77 337 0.0 0.0 0.00 0.00 0.00 84 1011.7
20260902072027 77 338 0.0 0.0 0.00 0.00 0.00 84 1011.9
20260902071525 77 337 0.0 0.0 0.00 0.00 0.00 85 1011.9
20260902071022 77 337 0.0 0.0 0.00 0.00 0.00 85 1011.7
20260902070518 77 336 0.0 0.0 0.00 0.00 0.00 85 1011.9
20260902070017 77 336 0.0 0.0 0.00 0.00 0.00 85 1011.9
20260902065511 77 336 0.0 0.0 0.00 0.00 0.00 86 1012.0
20260902065006 78 336 0.0 0.0 0.00 0.00 0.00 86 1011.7
20260902064502 78 337 0.0 0.0 0.00 0.00 0.00 86 1011.9
20260902063958 77 337 0.0 0.0 0.00 0.00 0.00 86 1011.8
20260902063457 77 337 0.0 0.0 0.00 0.00 0.00 87 1011.8
20260902062953 77 337 0.0 0.0 0.00 0.00 0.00 88 1011.9
20260902062445 77 337 0.0 0.0 0.00 0.00 0.00 88 1011.9
20260902061941 77 337 0.0 0.0 0.00 0.00 0.00 89 1012.0
20260902061436 77 336 0.0 0.0 0.00 0.00 0.00 90 1012.1
20260902060932 78 337 0.0 0.0 0.00 0.00 0.00 90 1012.2
20260902060428 78 337 0.0 0.0 0.00 0.00 0.00 90 1012.0
20260902055923 78 337 0.0 0.0 0.00 0.00 0.00 90 1012.0
20260902055420 78 337 0.0 0.0 0.00 0.00 0.00 90 1012.0
20260902054915 78 337 0.0 0.0 0.00 0.00 0.00 90 1011.9
20260902054410 78 337 0.0 0.0 0.00 0.00 0.00 90 1011.7
20260902053905 78 337 0.0 0.0 0.00 0.00 0.00 90 1012.0
20260902053400 78 337 0.0 0.0 0.00 0.00 0.00 90 1011.9
20260902052859 78 337 0.0 0.0 0.00 0.00 0.00 90 1011.7
20260902052354 78 338 0.0 0.0 0.00 0.00 0.00 90 1012.0
20260902051850 79 337 0.0 0.0 0.00 0.00 0.00 90 1012.0
20260902051349 78 337 0.0 0.0 0.00 0.00 0.00 90 1011.9
20260902050844 79 337 0.0 0.0 0.00 0.00 0.00 90 1012.1
20260902050343 79 337 0.0 0.0 0.00 0.00 0.00 90 1011.7
20260902045838 79 338 0.0 0.9 0.00 0.00 0.00 90 1011.7
20260902045334 79 338 0.0 0.0 0.00 0.00 0.00 90 1012.0
20260902044830 79 338 0.0 0.0 0.00 0.00 0.00 90 1011.7
20260902044326 79 338 0.0 0.0 0.00 0.00 0.00 90 1011.6
20260902043827 79 338 0.0 0.0 0.00 0.00 0.00 90 1011.7
20260902043321 80 339 0.0 0.9 0.00 0.00 0.00 90 1011.7
20260902042820 80 343 0.0 0.9 0.00 0.00 0.00 90 1011.7
20260902042315 80 341 0.0 0.0 0.00 0.00 0.00 90 1011.4
20260902041811 80 336 0.0 0.0 0.00 0.00 0.00 90 1011.7
20260902041310 80 336 0.0 0.0 0.00 0.00 0.00 90 1011.7
20260902040809 80 333 0.0 0.0 0.00 0.00 0.00 89 1011.6
20260902040305 80 332 0.0 0.0 0.00 0.00 0.00 89 1011.8
20260902035803 80 328 0.0 0.9 0.00 0.00 0.00 89 1011.7
20260902035259 80 335 0.0 0.0 0.00 0.00 0.00 89 1011.6
20260902034758 80 337 0.0 0.0 0.00 0.00 0.00 89 1011.6
20260902034253 80 336 0.0 0.0 0.00 0.00 0.00 89 1011.6
20260902033751 80 329 0.0 0.9 0.00 0.00 0.00 89 1011.6
20260902033247 80 336 0.0 0.0 0.00 0.00 0.00 89 1011.4
20260902032745 80 328 0.0 0.0 0.00 0.00 0.00 88 1011.6
20260902032241 80 328 0.0 0.0 0.00 0.00 0.00 88 1011.5
20260902031740 80 328 0.0 0.0 0.00 0.00 0.00 88 1011.5
20260902031236 81 328 0.0 0.0 0.00 0.00 0.00 88 1011.6
20260902030732 81 327 0.0 0.0 0.00 0.00 0.00 88 1011.6
20260902030231 81 326 0.0 0.9 0.00 0.00 0.00 88 1011.6
20260902025730 81 330 0.0 0.0 0.00 0.00 0.00 88 1011.5
20260902025226 81 328 0.0 0.9 0.00 0.00 0.00 88 1011.3
20260902024721 81 328 0.0 0.0 0.00 0.00 0.00 88 1011.5
20260902024216 81 329 0.0 0.9 0.00 0.00 0.00 88 1011.6
20260902023712 80 334 0.0 0.0 0.00 0.00 0.00 88 1011.6
20260902023207 80 331 0.0 0.9 0.00 0.00 0.00 88 1011.6
20260902022707 81 332 0.0 0.9 0.00 0.00 0.00 87 1011.7
20260902022202 81 336 0.0 0.0 0.00 0.00 0.00 87 1011.7
20260902021658 81 336 0.0 0.0 0.00 0.00 0.00 87 1011.4
20260902021152 82 336 0.0 0.0 0.00 0.00 0.00 87 1011.5
20260902020648 82 336 0.0 0.0 0.00 0.00 0.00 86 1011.5
20260902020144 82 336 0.0 0.0 0.00 0.00 0.00 86 1011.3
20260902015639 82 336 0.0 0.0 0.00 0.00 0.00 86 1011.4
20260902015136 82 336 0.0 0.0 0.00 0.00 0.00 85 1011.4
20260902014631 82 336 0.0 0.0 0.00 0.00 0.00 85 1011.3
20260902014126 82 335 0.0 0.0 0.00 0.00 0.00 85 1011.1
20260902013626 82 334 0.0 0.0 0.00 0.00 0.00 85 1011.0
20260902013121 82 333 0.0 0.0 0.00 0.00 0.00 84 1011.0
20260902012617 82 334 0.0 0.0 0.00 0.00 0.00 84 1011.1
20260902012112 83 333 0.0 0.0 0.00 0.00 0.00 84 1011.1
20260902011608 83 334 0.0 0.0 0.00 0.00 0.00 84 1011.0
20260902011107 83 334 0.0 0.0 0.00 0.00 0.00 84 1010.9
20260902010607 83 334 0.0 0.0 0.00 0.00 0.00 84 1010.9
20260902005600 84 331 0.0 0.0 0.00 0.00 0.00 82 1010.8
20260902005057 84 331 0.0 0.0 0.00 0.00 0.00 82 1010.8
20260902004555 84 332 0.0 0.0 0.00 0.00 0.00 81 1010.7
20260902004051 85 331 0.0 0.0 0.00 0.00 0.00 81 1010.6
20260902003546 85 332 0.0 0.0 0.00 0.00 0.00 80 1010.5
20260902003042 85 332 0.0 0.0 0.00 0.00 0.00 80 1010.8
20260902002538 85 331 0.0 0.0 0.00 0.00 0.00 79 1010.6
20260902002032 86 327 0.0 0.0 0.00 0.00 0.00 79 1010.7
20260902001527 86 327 0.0 0.0 0.00 0.00 0.00 79 1010.6
20260902001022 86 326 0.0 0.0 0.00 0.00 0.00 78 1010.4
20260902000517 86 326 0.0 0.0 0.00 0.00 0.00 78 1010.6
20260902000012 87 329 0.0 0.0 0.00 0.00 0.00 77 1010.5
20260901235507 87 32 0.0 0.0 0.00 0.00 0.00 76 1010.6
20260901235003 87 31 0.0 0.0 0.00 0.00 0.00 74 1010.8
20260901234501 88 31 0.0 0.0 0.00 0.00 0.00 73 1010.7
20260901233956 88 31 0.0 0.0 0.00 0.00 0.00 72 1010.7
20260901233451 89 31 0.0 0.0 0.00 0.00 0.00 71 1010.8
20260901232947 90 31 0.0 0.0 0.00 0.00 0.00 70 1010.7
20260901232442 90 31 0.0 0.0 0.00 0.00 0.00 68 1010.5
20260901231937 91 31 0.0 0.0 0.00 0.00 0.00 66 1010.8
20260901231434 91 31 0.0 0.0 0.00 0.00 0.00 64 1010.7
20260901230930 91 31 0.0 0.0 0.00 0.00 0.00 65 1010.7
20260901230429 91 31 0.0 0.0 0.00 0.00 0.00 61 1010.9
20260901225925 91 31 0.0 0.0 0.00 0.00 0.00 55 1010.6
20260901225424 91 31 0.0 0.0 0.00 0.00 0.00 54 1010.7
20260901224919 92 31 0.0 0.0 0.00 0.00 0.00 55 1010.8
20260901224416 92 31 0.0 0.0 0.00 0.00 0.00 53 1010.8
20260901223912 92 31 0.0 0.0 0.00 0.00 0.00 54 1010.7
20260901223407 92 31 0.0 0.9 0.00 0.00 0.00 54 1010.8
20260901222902 92 31 0.0 0.9 0.00 0.00 0.00 53 1010.9
20260901222359 92 31 0.0 0.9 0.00 0.00 0.00 52 1010.6
20260901221854 92 31 0.0 0.0 0.00 0.00 0.00 53 1010.9
20260901221350 93 31 0.0 0.0 0.00 0.00 0.00 53 1010.7
20260901220850 93 31 0.0 0.9 0.00 0.00 0.00 53 1010.8
20260901220348 93 31 0.0 0.0 0.00 0.00 0.00 53 1010.4
20260901215848 93 31 0.0 0.0 0.00 0.00 0.00 53 1010.5
20260901215347 93 31 0.0 0.0 0.00 0.00 0.00 53 1010.7
20260901214846 94 18 0.0 0.0 0.00 0.00 0.00 52 1010.5
20260901214345 94 17 0.0 0.0 0.00 0.00 0.00 51 1010.6
20260901213845 94 17 0.0 0.0 0.00 0.00 0.00 50 1010.9
20260901213339 94 17 0.0 1.7 0.00 0.00 0.00 49 1010.6
20260901212834 94 354 2.6 2.6 0.00 0.00 0.00 51 1010.6
20260901212330 94 15 0.9 1.7 0.00 0.00 0.00 52 1010.7
20260901211826 94 345 1.7 1.7 0.00 0.00 0.00 50 1010.5
20260901211321 94 8 0.9 2.6 0.00 0.00 0.00 50 1010.6
20260901210816 94 18 1.7 1.7 0.00 0.00 0.00 52 1010.7
20260901210312 94 30 0.9 0.9 0.00 0.00 0.00 49 1010.7
20260901205808 94 29 0.0 0.9 0.00 0.00 0.00 49 1010.7
20260901205308 93 10 0.9 0.9 0.00 0.00 0.00 50 1010.7
20260901204804 93 14 0.9 2.6 0.00 0.00 0.00 50 1010.7
20260901204300 93 342 2.6 2.6 0.00 0.00 0.00 52 1010.8
20260901203759 93 348 1.7 2.6 0.00 0.00 0.00 52 1010.9
20260901203300 93 345 1.7 1.7 0.00 0.00 0.00 50 1010.7
20260901202754 93 357 1.7 1.7 0.00 0.00 0.00 53 1010.8
20260901202250 93 7 1.7 2.6 0.00 0.00 0.00 51 1011.0
20260901201745 93 343 2.6 2.6 0.00 0.00 0.00 52 1011.1
20260901201244 93 342 1.7 2.6 0.00 0.00 0.00 51 1011.1
20260901200738 93 309 2.6 2.6 0.00 0.00 0.00 54 1011.2
20260901200234 94 10 0.9 1.7 0.00 0.00 0.00 52 1011.1
20260901195732 95 5 0.9 1.7 0.00 0.00 0.00 49 1011.2
20260901195226 94 0 0.9 1.7 0.00 0.00 0.00 50 1011.4
20260901194722 94 334 1.7 1.7 0.00 0.00 0.00 50 1011.4
20260901194217 94 25 0.0 1.7 0.00 0.00 0.00 51 1011.6
20260901193713 93 10 1.7 1.7 0.00 0.00 0.00 51 1011.3
20260901193207 94 3 1.7 2.6 0.00 0.00 0.00 50 1011.3
20260901192707 94 353 1.7 1.7 0.00 0.00 0.00 53 1011.5
20260901192202 94 241 1.7 2.6 0.00 0.00 0.00 52 1011.6
20260901191658 95 337 2.6 2.6 0.00 0.00 0.00 52 1011.8
20260901191154 95 18 0.0 0.9 0.00 0.00 0.00 49 1011.5
20260901190650 94 15 0.0 0.9 0.00 0.00 0.00 52 1012.1
20260901190148 94 5 0.9 2.6 0.00 0.00 0.00 51 1012.0
20260901185647 92 2 0.9 1.7 0.00 0.00 0.00 54 1011.8
20260901185145 92 6 2.6 2.6 0.00 0.00 0.00 53 1011.9
20260901184641 92 357 1.7 2.6 0.00 0.00 0.00 54 1011.9
20260901184131 91 1 1.7 4.3 0.00 0.00 0.00 54 1012.0
20260901183626 92 347 1.7 2.6 0.00 0.00 0.00 55 1012.0
20260901183121 91 5 2.6 2.6 0.00 0.00 0.00 57 1012.1
20260901182617 91 346 1.7 2.6 0.00 0.00 0.00 56 1012.1
20260901182117 91 342 2.6 4.3 0.00 0.00 0.00 55 1012.1
20260901181616 91 325 2.6 2.6 0.00 0.00 0.00 56 1012.2
20260901181116 91 357 0.9 2.6 0.00 0.00 0.00 57 1012.3
20260901180610 91 355 1.7 1.7 0.00 0.00 0.00 57 1012.4
20260901180104 90 352 1.7 2.6 0.00 0.00 0.00 57 1012.5
20260901175603 91 355 0.9 2.6 0.00 0.00 0.00 57 1012.4
20260901175058 91 359 0.0 0.9 0.00 0.00 0.00 58 1012.4
20260901174554 91 357 0.9 1.7 0.00 0.00 0.00 58 1012.5
20260901174050 91 356 0.9 1.7 0.00 0.00 0.00 58 1012.6
20260901173549 90 357 0.9 1.7 0.00 0.00 0.00 56 1012.7
20260901173046 90 357 0.9 1.7 0.00 0.00 0.00 57 1012.6
20260901172541 90 358 0.0 1.7 0.00 0.00 0.00 59 1012.5
20260901172038 90 357 1.7 1.7 0.00 0.00 0.00 58 1012.8
20260901171533 89 355 0.9 1.7 0.00 0.00 0.00 58 1012.9
20260901171032 89 355 1.7 2.6 0.00 0.00 0.00 59 1012.9
20260901170531 89 313 2.6 2.6 0.00 0.00 0.00 62 1013.2
20260901170026 89 349 1.7 1.7 0.00 0.00 0.00 61 1013.1
20260901165520 89 356 1.7 1.7 0.00 0.00 0.00 59 1013.1
20260901165016 89 359 0.9 0.9 0.00 0.00 0.00 62 1013.0
20260901164512 88 359 0.0 0.9 0.00 0.00 0.00 61 1013.1
20260901164007 88 353 1.7 1.7 0.00 0.00 0.00 65 1013.3
20260901163502 88 342 1.7 1.7 0.00 0.00 0.00 66 1013.3
20260901163000 88 320 2.6 2.6 0.00 0.00 0.00 66 1013.4
20260901162456 88 355 0.9 1.7 0.00 0.00 0.00 66 1013.2
20260901161955 87 358 0.9 1.7 0.00 0.00 0.00 66 1013.5
20260901161454 87 352 1.7 2.6 0.00 0.00 0.00 66 1013.7
20260901160949 87 358 0.9 1.7 0.00 0.00 0.00 67 1013.8
20260901160445 87 356 0.9 0.9 0.00 0.00 0.00 67 1013.7
20260901155944 87 359 0.0 0.0 0.00 0.00 0.00 68 1013.6
20260901155444 86 359 0.0 0.9 0.00 0.00 0.00 68 1013.6
20260901154941 86 338 2.6 2.6 0.00 0.00 0.00 70 1013.8
20260901154440 86 359 0.0 0.0 0.00 0.00 0.00 72 1013.7
20260901153935 85 358 0.0 0.9 0.00 0.00 0.00 72 1014.0
20260901153430 85 358 0.9 0.9 0.00 0.00 0.00 72 1014.0
20260901152929 85 355 0.9 1.7 0.00 0.00 0.00 73 1014.0
20260901152429 85 359 0.9 0.9 0.00 0.00 0.00 74 1014.0
20260901151929 85 358 0.9 0.9 0.00 0.00 0.00 75 1014.0
20260901151424 84 359 0.0 0.9 0.00 0.00 0.00 75 1014.1
20260901150923 84 358 0.9 0.9 0.00 0.00 0.00 76 1014.0
20260901150421 84 359 0.0 0.9 0.00 0.00 0.00 77 1013.9
20260901145918 83 358 0.9 0.9 0.00 0.00 0.00 77 1014.1
20260901145413 83 359 0.9 0.9 0.00 0.00 0.00 78 1014.0
20260901144908 83 355 0.9 0.9 0.00 0.00 0.00 79 1014.1
20260901144403 83 359 0.0 1.7 0.00 0.00 0.00 79 1014.0
20260901143859 82 356 0.9 1.7 0.00 0.00 0.00 80 1013.8
20260901143355 82 358 0.9 0.9 0.00 0.00 0.00 81 1014.0
20260901142851 82 353 1.7 1.7 0.00 0.00 0.00 81 1014.1
20260901142350 81 326 1.7 2.6 0.00 0.00 0.00 81 1014.1
20260901141845 81 356 0.9 1.7 0.00 0.00 0.00 82 1014.1
20260901141340 81 352 1.7 1.7 0.00 0.00 0.00 82 1014.2
20260901140839 81 352 0.9 1.7 0.00 0.00 0.00 82 1014.0
20260901140338 80 346 1.7 1.7 0.00 0.00 0.00 83 1013.9
20260901135833 80 356 0.9 1.7 0.00 0.00 0.00 84 1014.0
20260901135328 80 355 0.9 2.6 0.00 0.00 0.00 84 1013.9
20260901134824 79 331 1.7 1.7 0.00 0.00 0.00 85 1013.8
20260901134319 79 348 1.7 1.7 0.00 0.00 0.00 85 1014.0
20260901133813 79 352 0.9 1.7 0.00 0.00 0.00 85 1014.1
20260901133312 78 338 1.7 1.7 0.00 0.00 0.00 86 1014.0
20260901132810 78 347 1.7 1.7 0.00 0.00 0.00 86 1014.0
20260901132307 78 359 0.9 0.9 0.00 0.00 0.00 87 1013.9
20260901131800 77 0 0.9 0.9 0.00 0.00 0.00 88 1013.9
20260901131300 77 0 0.0 0.0 0.00 0.00 0.00 89 1013.8
20260901130754 77 0 0.0 0.0 0.00 0.00 0.00 89 1014.0
20260901130249 76 0 0.0 0.9 0.00 0.00 0.00 90 1013.8
20260901125747 76 359 0.0 0.0 0.00 0.00 0.00 91 1013.8
20260901125242 75 358 0.0 0.9 0.00 0.00 0.00 92 1013.9
20260901124742 75 357 0.0 0.0 0.00 0.00 0.00 94 1013.8
20260901124236 75 343 0.0 0.9 0.00 0.00 0.00 94 1014.0
20260901123730 75 328 0.0 0.9 0.00 0.00 0.00 94 1013.8
20260901123225 74 328 0.0 0.0 0.00 0.00 0.00 95 1013.9
20260901122724 74 327 0.0 0.9 0.00 0.00 0.00 95 1013.8
20260901122219 74 320 0.9 1.7 0.00 0.00 0.00 95 1013.9
20260901121713 74 329 0.0 0.0 0.00 0.00 0.00 95 1013.9
20260901121208 74 328 0.0 0.0 0.00 0.00 0.00 95 1013.6
20260901120708 74 324 0.0 0.9 0.00 0.00 0.00 95 1013.7
20260901120203 74 315 0.0 0.9 0.00 0.00 0.00 95 1013.5
20260901115658 74 322 0.0 0.0 0.00 0.00 0.00 95 1013.5